Location: Newark
(4.9000°N, 36.4333°E)
Time: 11:43:51
(UTC+00:00)

OTV 5 (USA 277) - Visible Passes

Search period start: 17 August 2019 00:00
Search period end: 27 August 2019 00:00
Orbit: 305 x 329 km, 54.5° (Epoch: 11 August)

Date Brightness Start Highest point End Pass type
(mag) Time Alt. Az. Time Alt. Az. Time Alt. Az.
20 Aug ? 16:53:01 10° SSW 16:55:20 62° SSW 16:55:20 62° SSW visible
21 Aug ? 17:08:19 10° W 17:10:11 17° WNW 17:12:02 10° NNW visible
23 Aug ? 03:06:09 10° N 03:08:28 27° ENE 03:10:50 10° ESE visible
25 Aug ? 02:01:59 10° NNE 02:03:20 13° ENE 02:04:42 10° E visible
26 Aug ? 02:17:36 63° NNE 02:17:50 68° ENE 02:20:29 10° SE visible
